Home > Weather > Lanchow > Past weeks

Flag for China Past Weather in Lanchow, Gansu, China — Yesterday and Last 2 Weeks

Now
70 °F

Sunny.


Feels Like: 70 °F
Forecast: 54 / 66 °F
Wind: 3 mph from Northeast

Location: Lanzhou / Zhongchuan

Current Time: May 31, 2016 at 10:24:46 PM

Latest Report: May 31, 2016 at 9:00 PM


Visibility: 10 mi

Pressure: 29.95 "Hg (25.07 "Hg at 1531m altitude)

Humidity: 33%

Dew Point: 39 °F

Location of LanchowLocation

Past Weather in Lanchow — Graph

°F

Lanchow Temperature Yesterday

Maximum temperature yesterday: 77 °F (at 2:00 PM)
Minimum temperature yesterday: 52 °F (at 5:00 AM)
Average temperature yesterday: 66 °F

High & Low Weather Summary for the Past Weeks

 TemperatureHumidityPressure
High79 °F (May 19, 2:00 PM)100% (May 23, 6:00 AM)30.33 "Hg (May 23, 6:00 AM)
Low37 °F (May 23, 6:00 AM)12% (May 28, 2:00 PM)29.74 "Hg (May 30, 5:00 PM)
Average57 °F58%30.01 "Hg
* Reported May 16 9:00 PM — May 31 9:00 PM, Lanchow, Weather by CustomWeather, © 2016

Note: Actual official high and low records may vary slightly from our data, if they occured in-between our weather recording intervals... More about our weather records

Advertising

Lanchow Weather History for the Previous 24 Hours

Scroll right to see more
 ConditionsComfort  
Time TempWeatherWind HumidityBarometerVisibility
9:00 PM
Tue, May 31
70 °FSunny.3 mph33%29.95 "Hg10 mi
8:00 PM72 °FSunny.6 mph31%29.95 "Hg10 mi
7:00 PM73 °FPassing clouds.6 mph29%29.92 "HgN/A
6:00 PM75 °FScattered clouds.10 mph27%29.89 "HgN/A
5:00 PM75 °FScattered clouds.10 mph27%29.89 "HgN/A
4:00 PM77 °FScattered clouds.6 mph26%29.89 "HgN/A
3:00 PM75 °FScattered clouds.6 mph27%29.92 "HgN/A
2:00 PM73 °FPartly sunny.8 mph31%29.92 "HgN/A
1:00 PM73 °FScattered clouds.6 mph33%29.92 "HgN/A
12:00 PM73 °FPassing clouds.6 mph36%29.92 "HgN/A
11:00 AM73 °FPassing clouds.6 mph27%29.92 "HgN/A
10:00 AM68 °FSunny.1 mph46%29.92 "Hg10 mi
9:00 AM64 °FSunny.6 mph56%29.92 "Hg10 mi
8:00 AM63 °FPassing clouds.3 mph59%29.92 "HgN/A
7:00 AM57 °FSunny.No wind82%29.89 "Hg10 mi
6:00 AM57 °FClear.3 mph82%29.89 "Hg10 mi
5:00 AM59 °FClear.3 mph77%29.86 "Hg4 mi
4:00 AM59 °FClear.3 mph77%29.86 "Hg4 mi
3:00 AM61 °FClear.6 mph63%29.86 "Hg10 mi
2:00 AM63 °FOvercast.6 mph59%29.86 "HgN/A
1:00 AM66 °FOvercast.3 mph49%29.86 "HgN/A
12:00 AM68 °FPassing clouds.1 mph49%29.86 "HgN/A
11:00 PM
Mon, May 30
68 °FPassing clouds.6 mph49%29.83 "HgN/A
10:00 PM70 °FPassing clouds.6 mph43%29.80 "HgN/A
Weather by CustomWeather, © 2016

See weather overviewHow to use our weather pages